Powrót do katalogu

NAVSTAR 25

USA 80

AktywnyNawigacjaMEO
NORAD 21930·PAYLOAD·🇺🇸 United States

Wystrzelony Apr 10, 1992 z Cape Canaveral Space Force Station

Loading…

Następne Przeloty (najbliższe 24 godziny)

TLE

ŚwieżeSource: Space-Track

Epoka: Sep 14, 2026, 12:40 UTC

1 21930U 92019A   26257.52798869 -.00000065  00000-0  00000+0 0  9993
2 21930  54.8594 302.0879 0030044 347.9496   9.5184  1.87661535243125

Śledź NAVSTAR 25 w czasie rzeczywistym z AllMySat

Download on the App Store